Powrót do katalogu

THORAD AGENA D DEB

AktywnyLEO
NORAD 4164·DEBRIS·🇺🇸 United States

Wystrzelony Sep 30, 1969 z Vandenberg Space Force Base

Loading…

Następne Przeloty (najbliższe 24 godziny)

TLE

ŚwieżeSource: Space-Track

Epoka: Sep 14, 2026, 08:31 UTC

1 04164U 69082AG  26257.35543463  .00000967  00000-0  35695-3 0  9998
2 04164  70.0766 297.9743 0036999 347.9852  12.0388 14.34987992923842

Śledź THORAD AGENA D DEB w czasie rzeczywistym z AllMySat

Download on the App Store